Погода в Любицком

Украина / Запорожская область     47°45′59″N   35°57′24″E
темп.,
°C
ветер,
м/с
пор.,
м/с
влажн.,
%
обл.,
%
осадки,
мм/ч
давл.,
гПа
погр.,
м
8 августа, пн
пн800:00+22св34465 0.0 101445
03:00+21св34390 0.0 101453
06:00+21всв33350 0.0 101540
09:00+29всв35250 0.0 1016399
12:00+34св56160 0.0 10153486
15:00+35ссв77150 0.0 10143820
18:00+33ссв77180 0.0 10141456
21:00+26ссв511323 0.0 1015151
9 августа, вт
вт900:00+24св45300 0.0 101562
03:00+22всв45300 0.0 101556
06:00+21в34320 0.0 101643
09:00+30всв34220 0.0 1016331
12:00+35всв57140 0.0 10143631
15:00+36св55131 0.0 10134047
18:00+35св661524 0.0 10122420
21:00+27св513251 0.0 1013213
10 августа, ср
ср1000:00+24всв46290 0.0 101374
03:00+23всв45301 0.0 101268
06:00+22всв4633100 0.0 101386
09:00+31вюв4724100 0.0 1013811
12:00+35вюв6717100 0.0 10123678
15:00+36в6814100 0.0 10104147
18:00+34св4718100 0.0 1009999
21:00+30св7122399 0.0 1011470
11 августа, чт
чт1100:00+26ссв473499 0.0 1010115
03:00+27св61431100 0.0 1010346
06:00+25всв5123763 0.0 1011291
09:00+31в912275 0.0 10111605
12:00+34в91220100 0.0 10113128
15:00+36вюв9101692 0.0 10103995
18:00+34юв671972 0.0 10112369
21:00+27ссз3531100 0.0 1012102
12 августа, пт
пт1200:00+26в51033100 0.0 1013294
03:00+24ссв41047100 0.3 1012218
06:00+27св71335100 0.0 1013497
09:00+31в81326100 0.0 10131548
12:00+33в8122297 0.1 10141950
15:00+37всв9121540 0.1 10123591
18:00+34в8111764 0.0 10122052
21:00+30всв81624100 0.0 1013562